Tracking 30923 objects as of 1-Jul-2025
HD Live streaming from Space Station
objects crossing your sky now

FENGYUN 1C DEB

Track FENGYUN 1C DEB now!
10-day predictions


NORAD ID: 37926
Int'l Code: 1999-025EPB
Perigee: 784.8 km
Apogee: 860.2 km
Inclination: 98.7 °
Period: 101.2 minutes
Semi major axis: 7193 km
RCS: 0.02 m2 (small)
Launch date: May 10, 1999
Source: People's Republic of China (PRC)
Launch site: Taiyaun Space Center, China (TSC)

Note: This is SATELLITE DEBRIS
Your satellite tracking list
Your tracking list is empty




NASA's NSSDC Master Catalog

Two Line Element Set (TLE):
1 37926U 99025EPB 25181.71062528  .00001771  00000-0  79524-3 0  9996
2 37926  98.7358 246.1557 0052419 342.0663 141.8573 14.22954569719221
Source of the keplerian elements: AFSPC